Retour au catalogue

STARLINK-37700

ActifCommunicationsSSO
NORAD 69215·PAYLOAD·🇺🇸 United States

Lancé May 26, 2026 depuis Vandenberg Space Force Base

Loading…

Prochains Passages (prochaines 24 heures)

TLE

FraisSource: CelesTrak SupGP

Époque: Sep 15, 2026, 02:58 UTC

1 69215C 26115E   26258.12409722 -.00059403  00000+0 -18442-2 0  2589
2 69215  97.2831 274.2450 0001323  90.8666 267.7650 15.33465531    13

Suivez STARLINK-37700 en temps réel avec AllMySat

Download on the App Store